Terminal Aerodrome Forecast
Issued by NWS Louisville, KY

Home | Current Version | Previous Version | Text Only | Print | Product List | Glossary On
Versions: 1 2 3 4 5 6 7 8 9 10 11 12 13 14 15 16 17 18
000
FTUS43 KLMK 201100
TAFSDF
TAF
KSDF 201120Z 2012/2118 04007KT P6SM BKN250
     FM202100 02006KT P6SM VCSH BKN035
     FM210300 35006KT P6SM BKN015=

USA.gov is the U.S. government's official web portal to all federal, state and local government web resources and services.